This is the latest recevied weather packets stored in our database for station/object K6CED. If no packets are shown the sender has not sent any weather packets the latest 10 day(s).
| Time | Temp. | Humidity | Pressure | Rain* | Wind** | Luminosity | Snow |
|---|---|---|---|---|---|---|---|
| 1778081365 | 13.33° C | 79% | 1020.8 hPa | 0 mm | - | 316 W/m² | - |
| 1778081062 | 13.89° C | 78% | 1020.7 hPa | 0 mm | - | 330 W/m² | - |
| 1778080761 | 12.78° C | 81% | 1020.9 hPa | 0 mm | - | 346 W/m² | - |
| 1778080457 | 12.78° C | 82% | 1020.7 hPa | 0 mm | - | 342 W/m² | - |
| 1778080155 | 12.22° C | 83% | 1020.8 hPa | 0 mm | - | 302 W/m² | - |
| 1778079851 | 11.67° C | 83% | 1020.8 hPa | 0 mm | - | 261 W/m² | - |
| 1778079548 | 12.22° C | 82% | 1020.7 hPa | 0 mm | - | 238 W/m² | - |
| 1778079244 | 11.67° C | 83% | 1020.9 hPa | 0 mm | - | 217 W/m² | - |
| 1778078942 | 11.11° C | 85% | 1020.7 hPa | 0 mm | - | 205 W/m² | - |
| 1778078638 | 11.11° C | 87% | 1020.9 hPa | 0 mm | - | 179 W/m² | - |
| 1778078337 | 10° C | 90% | 1020.6 hPa | 0 mm | - | 162 W/m² | - |
| 1778078033 | 9.44° C | 92% | 1020.7 hPa | 0 mm | - | 77 W/m² | - |
| 1778077732 | 8.89° C | 93% | 1020.6 hPa | 0 mm | - | 50 W/m² | - |
| 1778077429 | 8.89° C | 93% | 1020.9 hPa | 0 mm | - | 50 W/m² | - |
| 1778077127 | 8.33° C | 94% | 1020.5 hPa | 0 mm | - | 46 W/m² | - |
| 1778076825 | 8.33° C | 94% | 1020.7 hPa | 0 mm | - | 43 W/m² | - |
| 1778076523 | 7.78° C | 95% | 1020.6 hPa | 0 mm | - | 42 W/m² | - |
| 1778076219 | 7.78° C | 95% | 1020.7 hPa | 0 mm | - | 40 W/m² | - |
| 1778075916 | 7.78° C | 96% | 1020.6 hPa | 0 mm | - | 38 W/m² | - |
| 1778075613 | 7.78° C | 96% | 1020.5 hPa | 0 mm | - | 36 W/m² | - |
| 1778075309 | 7.78° C | 97% | 1020.3 hPa | 0 mm | - | 36 W/m² | - |
| 1778075006 | 7.78° C | 97% | 1020.3 hPa | 0 mm | - | 54 W/m² | - |
| 1778074703 | 7.22° C | 97% | 1020.6 hPa | 0 mm | - | 35 W/m² | - |
| 1778074400 | 6.67° C | 97% | 1020.4 hPa | 0 mm | - | 27 W/m² | - |
| 1778074096 | 6.67° C | 97% | 1020.2 hPa | 0 mm | - | 24 W/m² | - |
* Rain latest hour (hover to see other rain measurements)
** Current wind speed in m/s (hover to see current wind gust speed)